GFSGBSN_sfc_30mbdewp_105.txt.gz
Dewpoint
44 45 45 45 45 44 43 43 42 42 43 44 44 45 46 46 46 45 46 47 46 46 45 44 44 44 40 37 33 28 33 33 48 47 34 28 28 27 23 22 27 30 28 29 29 28 27
45 43 43 44 44 45 45 44 44 44 44 44 44 45 45 46 46 45 45 47 47 46 44 43 43 43 40 28 32 31 30 30 24 42 34 30 26 25 22 18 16 17 21 21 24 27 28
43 43 44 43 44 44 44 44 44 44 45 45 45 45 45 45 44 44 44 46 47 46 44 43 43 42 37 32 34 32 29 28 30 27 36 36 30 24 22 20 23 22 20 20 20 22 23
39 41 42 42 42 42 42 43 44 44 43 44 43 43 44 44 44 45 45 45 46 45 44 43 42 40 32 34 35 35 36 35 36 34 27 23 23 31 29 27 21 26 27 20 24 25 25
39 39 39 39 39 39 40 41 42 42 43 43 43 43 43 44 45 45 46 46 44 43 44 44 42 38 29 35 34 36 37 32 30 31 26 19 24 20 21 21 21 24 19 24 23 26 25
38 38 38 37 38 38 38 38 39 41 42 42 41 41 42 43 44 44 45 44 40 42 43 43 38 33 31 16 32 35 38 36 28 25 19 18 19 21 20 16 9 14 21 22 21 25 26
38 38 38 37 37 38 37 37 38 40 41 41 41 41 41 41 41 43 42 37 29 28 35 34 33 31 31 35 37 35 34 33 28 19 9 17 16 15 17 17 16 18 18 18 24 25 24
37 38 37 36 35 36 39 38 39 40 40 40 41 41 41 41 41 41 39 34 33 37 28 32 32 32 33 33 32 31 33 29 23 18 16 16 17 19 15 19 18 18 17 19 23 23 22
35 36 36 35 35 36 37 38 39 39 41 41 41 41 40 41 41 38 36 34 39 38 29 26 27 32 32 32 30 27 31 27 23 20 17 15 12 16 14 15 18 19 18 19 19 18 14
35 35 35 35 35 37 38 38 39 39 40 40 41 40 40 42 37 38 34 37 39 38 23 18 30 31 32 32 29 29 24 20 23 20 20 16 16 16 16 12 14 11 18 19 19 16 10
34 34 33 34 36 37 38 39 39 39 39 40 40 40 40 42 39 35 36 39 38 35 10 15 26 29 30 24 22 28 29 24 15 22 23 22 25 20 15 13 16 12 15 16 16 12 7
33 34 34 35 38 38 37 38 38 39 39 39 40 40 40 40 39 39 37 38 39 20 11 22 29 26 25 25 23 22 23 20 19 18 18 21 19 23 22 17 14 13 13 15 16 12 13
34 34 34 37 38 38 37 37 38 39 39 39 40 41 40 41 35 39 38 34 15 14 20 20 26 31 29 26 26 22 18 16 11 13 13 11 14 16 17 17 15 18 19 16 18 15 14
34 36 36 35 38 38 37 37 39 39 39 39 40 40 38 39 39 38 35 27 14 24 18 19 26 31 28 28 27 28 16 18 33 23 6 3 -3 8 14 17 16 16 18 13 9 15 13
34 38 38 38 37 37 37 38 39 40 39 40 40 36 34 36 38 37 27 14 17 24 24 20 18 23 24 28 28 31 31 31 32 34 16 12 9 11 13 11 16 16 14 19 16 19 16
34 37 35 36 37 37 37 38 39 40 39 40 36 34 31 37 38 30 21 18 22 26 22 20 16 20 22 22 26 30 30 34 33 32 35 23 15 19 19 14 15 15 20 16 18 12 10
34 34 35 38 39 39 38 39 40 40 40 40 32 26 31 38 36 24 15 18 21 21 21 19 19 21 24 23 25 29 28 30 31 32 33 31 22 19 19 17 13 12 11 16 18 18 9
33 35 36 38 37 38 39 40 40 40 40 35 30 18 28 38 25 24 21 21 25 20 24 23 24 25 23 24 23 24 26 29 33 34 32 34 30 22 19 22 30 20 16 14 12 15 19
34 36 32 37 37 39 40 41 41 41 39 35 28 26 30 34 18 22 23 24 27 25 24 26 23 24 23 22 20 25 26 32 34 33 32 32 29 22 22 29 26 27 27 21 23 20 14
33 38 34 37 36 38 39 41 41 41 41 35 27 18 22 30 29 25 24 22 23 26 26 27 27 26 26 22 27 24 26 31 33 34 37 34 29 26 18 22 28 24 25 27 25 20 18
33 37 33 37 36 37 39 41 42 41 41 32 29 23 25 17 25 24 24 24 24 24 26 26 24 23 25 24 23 24 28 26 28 34 36 34 27 28 28 29 30 27 25 25 23 22 19
33 36 33 32 35 37 39 41 42 41 39 31 25 24 26 26 25 23 22 20 24 21 22 25 20 21 24 25 27 25 25 25 26 31 32 34 27 29 27 29 28 22 24 27 28 26 27
35 33 33 31 35 37 39 41 42 42 37 33 31 30 28 22 22 22 22 22 22 21 19 23 24 22 22 26 31 31 31 30 27 27 30 31 29 25 19 26 23 15 20 24 28 34 33
35 33 34 33 34 36 39 41 42 43 39 34 32 31 28 20 21 19 19 20 20 20 19 20 23 24 26 34 36 33 33 32 31 31 31 30 29 26 21 22 11 30 36 32 31 34 35
34 34 33 34 34 35 39 41 42 42 43 37 35 32 28 22 21 21 21 21 22 22 21 21 24 26 33 36 27 26 24 26 27 31 30 32 29 24 19 19 19 27 34 34 33 32 36
33 34 32 36 33 35 39 40 42 42 42 40 36 37 33 26 22 22 20 21 20 21 23 24 29 33 36 31 28 22 18 20 19 26 31 33 32 25 23 16 13 27 36 36 37 27 35
33 33 34 35 33 35 38 40 41 42 42 42 39 38 34 28 27 26 23 22 24 25 24 25 27 26 32 28 25 23 21 23 18 20 25 26 28 24 20 18 19 32 34 37 25 27 37
32 32 34 34 33 33 36 39 40 41 43 43 39 38 35 31 30 29 27 24 24 27 23 25 24 30 28 23 25 26 25 24 24 27 27 25 24 23 23 19 13 33 34 28 33 35 34
32 32 33 35 33 33 36 39 39 41 42 43 38 40 40 34 33 36 35 33 29 28 26 27 27 30 30 26 27 29 26 27 26 19 31 26 29 27 26 26 33 34 33 33 34 31 31

GFSGBSN_sfc_30mbdewp_108.txt.gz
Dewpoint
45 46 46 46 46 46 45 44 44 44 44 45 45 45 45 46 45 45 46 47 46 45 45 45 45 44 39 30 26 14 32 27 23 34 27 23 20 20 17 16 20 23 24 23 24 23 22
44 43 44 44 44 44 44 44 44 44 45 45 45 45 44 44 44 44 44 45 45 44 45 45 45 44 36 29 27 25 26 25 21 35 22 23 20 20 17 16 17 20 22 23 24 24 24
43 42 43 43 43 43 43 44 44 44 44 44 43 44 44 43 43 44 43 44 45 45 45 45 45 42 34 31 30 26 27 23 24 27 29 25 24 23 20 18 19 18 17 17 18 19 19
40 40 42 40 40 41 41 41 42 42 42 42 43 43 43 43 43 44 44 44 44 43 43 43 43 40 33 32 29 29 27 26 26 25 24 29 28 28 23 22 21 18 17 14 17 19 19
40 39 39 39 39 39 39 39 39 41 42 42 42 41 42 43 43 44 44 44 43 41 41 44 41 38 26 31 30 28 27 22 20 23 22 19 20 24 24 22 17 18 15 16 19 23 21
39 39 38 38 37 38 37 38 39 40 41 41 41 41 41 42 42 43 43 43 41 40 37 40 39 36 34 23 27 33 35 29 29 24 21 17 13 12 20 17 13 14 17 19 20 22 23
39 39 38 37 37 37 38 38 37 39 39 41 41 41 41 41 41 42 39 29 25 24 30 25 19 30 28 27 29 29 33 34 31 23 3 7 9 9 8 16 16 14 12 11 12 19 21
37 37 37 36 35 36 37 37 37 38 39 41 41 41 41 41 41 41 36 29 33 35 29 25 25 26 25 22 21 25 31 31 26 19 4 7 6 6 9 12 16 17 18 12 10 21 22
36 36 36 36 36 36 37 36 38 39 40 41 41 41 41 41 42 37 34 32 35 37 25 19 20 24 23 24 21 21 26 29 23 16 8 8 4 7 11 13 15 18 17 16 10 12 17
36 35 35 34 35 36 38 38 39 39 39 40 40 40 40 41 38 36 31 35 36 38 23 11 26 31 33 27 26 24 23 27 24 17 11 9 14 9 13 14 15 12 14 12 15 21 9
35 34 34 34 38 38 38 38 38 39 39 39 39 40 41 42 37 32 32 37 37 37 7 18 31 39 36 28 21 19 22 20 19 19 20 16 11 16 14 14 13 11 10 12 14 13 10
34 34 34 35 38 38 38 37 38 39 40 39 39 41 41 38 37 35 37 38 37 23 11 19 24 30 33 28 24 25 23 20 16 17 20 18 24 15 13 18 15 16 15 13 12 9 5
34 34 34 36 37 38 38 37 38 39 40 40 40 41 39 38 33 38 38 34 21 12 17 16 16 28 31 30 23 20 21 16 8 10 10 13 18 21 24 19 20 13 14 15 15 13 7
34 36 37 35 38 37 37 38 39 40 40 39 40 40 38 36 37 39 35 28 13 17 17 16 15 24 28 31 30 18 14 17 22 12 3 8 8 15 20 20 17 14 15 8 9 10 9
33 37 38 37 37 36 37 38 39 40 40 40 40 35 34 37 39 38 27 14 15 20 14 13 13 18 24 24 31 30 29 29 29 31 11 5 3 11 12 17 16 16 16 15 15 16 14
34 38 36 35 37 38 38 38 39 40 40 41 34 31 33 40 41 32 20 15 16 19 16 14 13 19 23 23 27 30 30 32 32 32 33 22 10 8 11 11 11 13 15 15 14 6 3
33 36 34 36 39 39 38 39 40 40 40 39 32 23 31 38 40 25 15 9 14 17 22 20 18 18 19 17 22 29 29 32 34 33 33 31 20 19 17 14 8 9 15 15 13 11 4
33 35 35 38 37 37 39 40 41 41 40 35 30 22 31 38 25 26 18 21 24 21 22 24 23 19 19 20 19 21 23 28 32 35 33 33 30 17 17 27 17 7 7 12 10 10 13
33 35 35 33 37 38 39 40 41 41 39 34 26 23 30 37 19 18 20 21 24 23 22 24 23 23 23 20 19 20 21 28 28 33 34 34 28 15 17 24 26 22 19 13 15 17 14
36 34 37 36 36 37 38 40 42 42 40 35 30 23 22 29 26 22 20 20 21 25 25 24 24 22 22 20 21 20 22 24 25 33 37 35 28 26 16 19 24 22 23 22 20 17 13
37 34 36 36 36 36 37 40 42 42 41 33 30 25 24 19 20 19 20 20 20 20 21 24 21 19 21 21 21 20 22 23 24 34 36 34 26 27 25 26 27 24 23 22 19 20 18
36 33 38 34 34 35 37 40 41 42 40 31 29 26 25 20 21 21 18 16 18 20 17 18 22 21 19 22 24 22 23 23 23 29 29 35 26 28 23 24 26 23 22 22 21 21 22
36 35 35 33 33 35 37 39 42 42 37 33 30 30 26 22 19 17 15 17 19 18 16 19 20 19 19 22 25 26 29 29 28 27 28 31 28 23 18 22 22 17 20 20 22 26 27
35 35 34 34 32 35 36 39 42 43 39 36 32 29 27 22 19 18 17 15 15 16 18 19 20 20 21 26 30 30 30 30 29 29 28 30 27 24 19 18 13 27 32 28 23 28 30
34 33 34 34 35 35 36 38 41 42 41 38 37 32 29 24 21 20 21 20 20 19 19 20 21 25 29 32 27 20 21 24 24 28 27 28 27 22 18 14 14 18 35 31 27 32 36
35 34 34 33 33 35 35 38 41 41 42 40 37 38 35 28 21 23 20 21 20 20 22 23 26 28 32 29 26 19 16 20 17 25 31 29 29 25 18 14 12 30 36 35 35 28 37
35 33 34 34 34 35 34 37 40 41 41 42 39 39 35 29 26 26 23 22 23 23 22 23 25 25 32 25 22 20 18 21 17 18 25 26 29 25 20 16 14 30 33 36 27 28 36
35 35 33 33 34 35 34 36 39 40 41 42 40 39 36 31 28 29 27 25 24 25 23 24 24 30 27 25 24 22 23 22 22 23 27 22 22 22 22 18 14 33 33 31 33 34 34
37 35 32 32 35 35 33 34 37 40 40 42 39 40 40 34 34 36 34 31 30 28 26 26 26 26 27 26 24 24 25 26 24 18 29 26 28 27 29 29 33 33 32 33 34 32 32

GFSGBSN_sfc_30mbdewp_114.txt.gz
Dewpoint
47 46 46 45 45 45 45 44 45 45 45 45 45 45 44 44 44 44 44 44 44 44 44 44 44 44 40 27 23 21 35 36 28 19 18 23 26 22 19 18 18 19 21 23 25 24 24
46 46 46 46 46 45 44 44 44 45 44 44 44 44 44 43 43 43 43 43 43 43 43 44 44 43 36 26 22 20 19 18 16 14 11 9 10 19 21 21 21 18 20 22 23 24 24
46 45 45 45 44 44 44 44 43 43 43 43 43 43 43 43 43 43 43 43 43 43 43 43 43 41 32 26 26 26 24 23 21 18 13 13 7 8 15 18 21 22 21 22 22 22 24
45 45 44 44 43 42 42 42 42 42 42 43 42 42 43 43 43 43 42 43 44 43 43 44 44 38 31 30 29 24 25 25 24 22 21 14 15 7 14 14 18 18 19 18 21 20 21
44 44 43 42 41 41 40 40 41 41 41 42 42 42 42 43 43 43 44 44 44 44 44 45 38 37 30 25 19 14 13 19 24 25 20 17 14 18 19 12 13 18 16 17 18 19 18
44 44 42 40 40 40 39 39 39 40 40 41 42 42 42 42 43 43 43 43 41 43 39 32 28 25 22 17 19 25 22 21 18 19 27 23 14 11 14 15 13 16 17 17 17 19 19
43 43 40 40 40 39 39 39 38 38 39 42 42 41 41 41 41 42 41 30 23 25 26 20 18 18 19 21 29 26 28 27 23 16 14 29 15 9 10 18 18 17 16 17 19 20 20
43 42 40 39 38 38 38 38 38 39 41 41 41 41 41 41 42 42 40 27 27 31 29 27 25 23 23 25 23 24 29 27 24 17 13 30 26 11 11 9 13 13 13 16 19 20 24
43 41 39 38 37 37 38 38 39 40 40 40 40 40 41 42 42 40 32 28 29 32 29 24 20 21 25 23 20 24 26 26 21 17 18 28 26 11 10 3 5 9 11 16 17 24 30
42 40 38 38 37 39 38 39 39 39 39 40 40 40 41 42 40 32 28 29 32 34 27 14 13 16 18 18 22 26 26 19 24 22 29 31 31 13 8 5 0 6 10 14 17 22 27
40 38 37 36 37 38 38 38 38 38 40 41 40 40 42 42 37 31 29 32 34 35 11 12 10 12 13 20 23 27 31 23 23 29 29 30 31 16 6 3 -1 5 9 13 17 20 24
39 37 36 36 40 38 38 38 38 39 40 41 40 40 41 36 39 36 33 36 35 28 12 6 10 7 11 20 25 30 31 30 19 27 30 31 30 26 8 1 -1 6 14 18 19 20 19
38 37 36 36 39 39 38 37 38 39 40 41 41 41 40 34 32 34 37 34 27 17 9 7 6 7 12 17 20 24 25 19 9 16 22 19 24 26 18 7 3 14 15 17 19 17 17
37 36 36 37 38 38 37 38 39 40 41 41 41 42 39 33 36 37 35 29 18 13 8 6 6 7 10 17 19 25 29 16 6 12 14 6 24 28 23 12 7 16 15 18 12 13 13
37 36 36 36 38 37 37 38 39 40 40 41 41 36 37 38 39 37 32 20 8 9 6 9 10 7 10 12 26 29 31 28 29 31 26 24 17 28 26 16 16 16 16 20 19 24 21
37 37 40 39 37 37 37 38 39 40 41 40 36 30 29 34 36 38 27 16 6 7 12 14 9 15 11 13 15 26 27 31 28 31 33 30 27 25 27 18 16 17 20 18 19 15 17
35 37 38 36 36 39 39 39 40 41 41 41 37 28 34 33 38 35 25 14 15 14 15 14 14 14 16 14 17 18 24 27 26 31 32 30 28 24 17 26 21 20 15 15 16 15 11
35 38 36 36 39 37 38 40 41 41 41 40 32 25 30 31 32 27 21 16 18 15 16 16 17 15 14 16 22 15 16 18 22 34 30 31 32 25 16 9 10 13 13 15 15 13 10
35 37 36 37 38 37 39 40 41 42 42 36 27 20 30 35 27 16 16 15 16 15 17 16 17 16 17 14 18 25 16 18 20 27 30 31 29 24 21 22 9 5 4 9 14 13 16
37 35 36 37 38 37 38 39 41 42 43 38 30 30 24 23 20 19 16 15 14 19 17 16 16 23 17 14 15 25 17 16 19 26 31 34 29 29 25 29 31 18 1 2 7 13 13
37 35 37 37 36 37 37 38 41 42 42 37 34 30 21 24 21 18 16 16 13 13 16 16 16 19 15 16 17 16 15 16 18 26 24 28 27 28 26 24 30 34 30 20 6 12 12
37 37 37 37 37 36 36 37 40 42 42 35 27 32 23 20 18 17 17 13 13 14 15 14 15 16 17 16 18 17 19 19 19 20 20 26 27 27 20 15 23 29 31 30 30 27 23
37 38 37 38 37 35 35 37 40 42 42 33 31 28 25 24 19 17 17 12 11 12 13 14 14 15 16 18 22 23 23 23 23 24 20 25 29 25 17 17 15 13 16 18 15 16 19
37 38 36 38 36 34 35 37 39 42 43 39 33 30 25 24 19 16 17 16 16 16 16 16 17 18 20 24 25 25 24 22 21 23 21 25 24 24 22 20 12 27 32 33 27 32 33
38 37 36 37 35 34 34 36 39 41 43 39 40 31 28 25 19 17 18 16 19 19 21 20 21 22 25 25 24 21 20 21 22 19 21 25 26 24 21 19 16 28 30 32 33 34 36
39 38 38 37 36 35 36 36 38 41 41 42 40 40 33 29 24 23 19 18 20 22 20 23 28 25 25 25 24 18 17 17 16 26 29 25 26 23 20 18 15 27 29 30 32 28 33
39 38 37 36 37 36 37 36 38 40 41 42 40 40 36 31 25 25 25 27 23 23 20 23 26 25 26 25 22 19 18 21 18 23 25 24 25 22 19 17 27 30 31 30 26 26 34
40 39 37 36 37 36 37 36 37 39 41 41 40 40 37 33 29 29 29 28 28 27 28 28 24 29 24 24 22 22 21 21 21 22 24 25 25 24 26 21 21 33 30 28 32 36 36
39 39 38 37 37 37 37 36 37 38 40 40 38 42 42 35 34 38 36 35 34 32 29 27 25 25 23 26 26 25 22 24 22 22 32 25 27 25 28 27 31 33 33 35 34 31 30

GFSGBSN_sfc_30mbdewp_120.txt.gz
Dewpoint
54 54 52 50 49 48 47 45 45 45 46 45 45 45 45 44 43 44 44 44 44 44 44 44 43 44 42 29 15 28 32 30 25 24 22 21 19 17 13 25 21 22 18 14 14 19 22
54 53 51 50 48 46 46 46 45 45 45 45 44 44 44 44 44 44 44 44 44 43 42 43 44 44 40 10 23 25 28 28 25 24 24 22 20 21 19 13 10 14 13 18 20 16 16
53 53 51 50 48 46 46 46 45 45 44 43 43 43 43 43 43 44 44 43 44 43 43 45 45 43 37 18 24 28 30 29 26 22 21 23 23 21 20 18 19 15 11 8 13 20 21
54 52 50 49 49 48 47 45 45 44 43 43 43 43 43 43 44 44 43 44 44 44 45 46 45 41 28 32 32 32 32 26 24 22 22 21 21 18 20 20 18 15 14 9 7 13 19
53 51 49 49 48 47 46 44 43 43 43 42 42 42 43 43 43 43 44 45 45 45 46 46 42 39 28 34 34 30 27 23 24 27 26 27 22 19 24 22 18 14 10 9 9 9 16
52 50 49 48 46 45 44 43 42 41 41 41 42 43 42 42 42 44 45 45 43 45 45 44 36 32 30 21 21 21 23 23 24 24 28 26 21 17 18 20 15 9 9 10 9 6 13
51 50 48 47 45 44 43 42 41 40 40 40 42 42 42 41 41 44 44 35 24 18 27 18 25 24 23 21 24 23 24 24 25 28 24 25 23 20 18 17 20 19 17 13 12 13 13
50 49 48 45 45 43 41 41 40 39 39 41 41 41 41 41 42 44 43 28 28 30 26 30 30 29 27 27 23 22 24 26 25 22 22 23 23 24 24 22 16 15 19 22 18 13 12
50 47 45 45 44 42 41 41 40 40 41 41 40 41 41 42 43 41 34 33 34 33 28 25 28 25 22 25 20 20 28 27 23 19 21 24 22 21 23 23 21 19 16 17 21 14 12
47 46 46 46 43 42 41 40 39 40 40 39 41 41 41 42 40 38 32 34 35 34 22 23 22 22 16 12 19 19 28 26 21 20 21 23 23 20 20 21 24 24 18 18 21 13 10
46 47 46 44 43 42 40 40 40 40 39 41 41 41 41 42 37 36 35 37 37 35 8 17 8 10 10 17 17 19 25 23 23 23 24 22 21 26 27 27 32 27 25 19 22 12 10
45 45 44 43 42 42 40 39 39 38 40 41 41 42 42 41 40 38 39 38 36 23 9 7 6 10 13 15 17 21 28 30 27 25 23 23 23 25 24 28 28 31 23 23 17 13 10
45 43 43 42 41 39 38 38 38 39 40 41 42 42 41 39 35 38 39 36 23 12 7 6 5 13 15 16 17 23 28 25 25 25 23 27 23 30 31 30 30 27 20 15 12 14 18
44 42 41 40 41 39 38 38 38 39 40 41 42 42 38 39 38 39 37 30 15 9 6 9 12 16 14 16 16 23 26 26 22 26 27 24 20 25 27 33 30 27 19 11 12 16 18
42 41 39 39 40 38 37 38 39 40 41 42 42 39 36 40 39 40 33 19 9 4 11 12 14 15 15 16 17 22 24 26 23 25 25 25 23 26 25 29 34 18 14 14 18 25 16
41 40 38 40 40 38 37 38 38 40 41 42 36 37 37 41 40 39 28 19 11 12 13 14 13 16 14 16 17 19 22 24 23 25 30 27 25 27 30 34 30 28 21 22 24 19 14
38 37 38 39 39 38 37 38 39 41 42 42 37 34 35 36 40 34 21 23 15 14 15 14 14 15 16 20 19 21 23 23 21 22 29 30 29 25 29 32 29 27 21 28 27 27 23
38 39 40 40 38 38 39 39 41 42 43 40 36 30 36 37 31 32 25 22 17 15 16 17 16 18 21 20 17 19 20 24 24 22 21 31 31 26 23 27 31 29 30 29 21 25 28
38 40 38 37 38 40 39 40 41 43 42 37 34 30 36 36 27 27 28 18 18 17 15 17 15 23 22 18 17 19 22 24 23 23 20 26 27 23 18 22 27 30 30 31 32 30 25
39 41 38 38 39 38 39 40 41 43 43 38 34 25 31 33 31 19 16 18 16 19 16 17 18 22 17 16 19 17 23 23 24 23 27 28 27 26 22 24 28 28 29 31 30 26 21
40 39 38 38 39 38 39 39 41 43 43 38 31 30 27 24 20 17 16 17 16 17 16 16 17 17 16 14 17 21 22 22 21 23 24 25 23 25 26 28 32 31 31 31 29 30 19
38 39 39 39 38 38 38 38 40 42 42 37 24 28 28 26 17 15 18 16 13 13 13 12 16 16 15 15 19 21 21 21 21 23 23 25 24 26 25 26 31 30 32 31 32 32 35
39 38 38 39 37 37 36 37 40 42 41 35 34 33 27 25 23 20 20 15 17 19 18 18 18 17 17 20 24 24 24 24 24 23 23 25 26 23 22 24 29 22 27 30 29 30 34
39 38 37 39 39 36 35 36 40 42 42 40 39 34 26 23 24 23 20 18 20 24 22 22 27 25 25 28 28 27 27 26 27 27 27 25 26 25 23 22 19 29 30 32 30 30 31
40 39 38 39 38 36 36 37 40 42 42 40 40 36 32 25 27 25 25 25 26 25 24 28 27 28 31 29 25 22 20 23 26 28 28 29 27 23 21 20 28 26 27 29 28 27 31
40 40 39 40 40 38 37 38 40 41 42 40 39 39 34 24 27 29 27 28 25 25 24 26 29 31 29 27 24 19 20 21 22 23 28 29 30 26 23 20 17 24 28 31 32 23 32
40 40 40 40 39 38 37 38 40 41 42 40 38 39 33 27 30 30 28 28 29 28 26 28 28 27 28 25 23 22 20 24 21 24 25 26 25 22 23 23 25 28 30 31 19 24 33
40 40 40 40 39 38 38 38 39 41 42 40 40 39 32 30 30 33 35 32 32 30 27 29 24 25 24 23 24 23 22 22 23 28 27 25 24 23 22 19 17 30 28 24 29 31 31
40 40 40 40 39 39 38 38 39 41 41 39 38 42 39 32 30 36 35 34 33 34 32 31 28 26 29 25 25 26 24 25 23 21 31 25 29 25 24 24 30 31 30 32 33 31 30

GFSGBSN_sfc_30mbdewp_123.txt.gz
Dewpoint
56 55 54 54 53 52 50 49 46 45 46 46 46 45 45 44 43 44 44 44 45 44 43 43 44 45 41 17 5 26 33 31 25 23 21 22 18 18 15 16 17 14 17 21 20 19 14
56 55 54 54 53 51 50 48 46 46 46 45 45 44 44 44 44 44 44 44 44 44 43 44 45 45 38 -0 18 25 30 28 26 23 20 22 21 21 20 18 16 15 16 15 14 13 10
56 55 55 53 52 50 50 48 47 46 45 45 44 43 44 44 43 44 44 44 43 43 44 45 46 43 37 15 25 31 31 28 29 25 21 23 22 20 19 17 20 18 16 15 13 10 11
56 55 55 53 51 50 48 48 47 46 45 44 43 43 43 43 44 44 43 43 44 45 45 46 47 42 26 30 34 37 33 28 25 23 22 25 23 21 18 20 20 19 17 8 5 8 10
56 55 54 52 51 50 48 48 47 45 44 43 43 43 43 43 43 43 43 44 45 46 47 46 43 38 19 33 28 30 34 24 22 24 26 26 26 23 20 18 16 19 8 10 8 9 9
56 55 54 52 51 50 49 47 46 44 43 42 42 43 43 43 42 43 45 45 45 46 46 45 39 31 27 16 22 21 23 22 22 23 25 27 24 21 20 16 9 6 8 9 10 10 11
56 55 53 52 50 49 48 46 44 43 42 41 42 42 42 42 41 43 44 31 20 23 31 18 20 24 21 23 24 22 24 24 24 26 25 25 22 17 19 18 16 15 16 15 17 18 18
56 54 53 51 49 48 46 45 44 42 41 40 42 41 41 41 42 43 43 29 26 27 12 29 29 28 28 26 23 21 25 25 25 23 24 21 20 20 22 23 21 21 18 17 17 16 18
55 53 52 50 48 46 44 45 43 41 40 41 41 41 41 41 43 40 33 32 32 33 20 21 28 26 24 27 22 17 26 26 24 23 22 19 20 22 21 21 21 22 22 21 20 21 18
53 52 50 49 46 44 45 45 42 41 41 41 40 41 41 42 39 37 32 35 35 34 20 23 23 22 20 22 17 20 27 26 22 22 22 22 23 21 20 19 20 20 22 24 30 26 18
51 50 48 46 45 45 46 45 42 41 40 39 41 41 42 42 36 34 35 38 37 34 -6 21 13 12 16 16 17 17 26 26 25 24 24 24 24 24 24 24 24 26 27 31 26 21 17
49 47 46 45 45 46 45 43 42 41 39 41 41 42 42 41 39 38 39 39 36 21 2 7 7 11 15 16 18 20 25 30 27 27 26 25 26 24 24 24 28 32 30 28 24 22 16
47 47 46 46 45 44 43 43 41 39 40 41 42 42 41 39 35 38 39 36 21 11 7 6 5 14 17 15 16 21 26 24 22 22 20 25 26 26 26 29 30 30 24 17 15 17 13
45 45 45 45 44 43 41 39 38 39 40 41 41 42 39 38 38 39 36 29 14 11 6 10 13 16 14 17 16 21 23 21 23 24 25 23 18 26 29 28 27 30 21 15 9 16 17
43 44 44 43 42 40 39 39 39 40 41 41 42 40 36 36 38 39 32 21 13 7 11 12 14 15 15 16 18 19 22 23 24 22 23 23 22 24 26 28 32 27 27 23 16 23 22
43 42 42 43 42 41 40 39 39 40 41 42 36 37 37 40 40 37 27 14 11 13 13 14 13 16 15 17 17 17 21 23 21 21 23 27 23 25 27 33 33 32 28 20 21 18 16
41 40 40 42 40 38 39 38 39 40 41 42 37 32 37 39 40 32 19 20 13 14 15 14 14 14 16 19 19 18 22 23 23 22 22 26 28 24 27 31 30 31 30 30 29 28 22
39 40 42 41 39 37 38 38 41 42 42 40 37 29 36 39 31 30 25 24 16 15 17 17 16 18 20 20 16 17 20 22 26 23 21 23 27 25 23 30 31 32 32 31 27 24 27
39 39 39 39 38 37 38 40 42 43 42 38 32 32 36 36 26 28 28 18 17 16 15 16 15 23 19 17 14 19 20 23 25 23 21 25 24 22 16 22 25 29 30 32 33 32 27
41 42 40 38 40 40 39 41 42 43 43 37 32 24 30 31 31 20 17 18 17 20 17 17 20 17 15 14 18 14 16 23 24 23 26 27 27 23 19 22 29 28 30 31 32 27 26
41 39 39 39 39 39 39 40 42 43 42 37 31 28 28 24 24 20 18 17 16 17 14 16 18 16 15 13 15 18 21 22 22 23 25 25 23 24 24 26 30 30 31 32 29 31 28
40 38 40 40 38 38 38 39 41 43 42 36 29 28 28 25 18 16 17 16 15 12 13 13 15 17 16 16 16 17 21 21 21 23 22 25 22 25 23 27 30 24 27 28 28 30 33
40 39 39 40 39 38 37 39 41 42 41 34 34 32 27 26 21 19 19 16 17 17 18 19 20 20 19 20 22 25 25 25 24 23 23 24 25 24 20 24 31 21 25 27 28 29 30
40 39 39 38 39 37 36 39 41 42 41 39 39 31 24 23 22 22 23 19 23 24 20 27 26 24 25 29 30 28 28 27 27 26 27 25 26 25 23 24 16 27 31 31 29 28 30
40 39 38 38 38 37 37 39 41 42 42 40 39 34 28 24 26 26 26 25 25 25 25 26 26 27 30 30 25 21 22 22 25 28 29 27 27 25 21 22 25 24 26 27 26 26 31
40 39 39 40 39 38 37 39 41 41 42 39 38 38 32 26 26 30 28 27 24 24 23 25 29 31 28 26 24 20 20 22 21 23 26 30 28 26 23 20 16 25 27 29 32 22 32
40 40 40 40 39 38 38 39 41 43 41 38 39 38 30 26 30 30 26 26 29 27 25 27 29 26 27 25 23 21 20 23 22 21 24 24 24 23 22 23 24 27 28 30 20 22 31
40 40 40 41 40 38 38 39 41 42 42 40 39 39 30 26 28 32 35 32 31 29 23 27 23 24 25 23 22 22 22 23 23 28 27 24 22 20 21 17 14 29 27 23 28 31 30
40 40 40 40 40 39 39 39 41 42 41 39 38 41 37 30 28 36 35 34 32 32 30 31 26 26 29 23 24 26 24 25 23 21 28 23 28 23 25 23 29 30 29 31 32 31 30

GFSGBSN_sfc_30mbdewp_126.txt.gz
Dewpoint
57 56 56 56 54 54 53 52 51 48 46 45 46 46 45 44 44 44 44 45 45 44 44 44 45 45 37 1 0 23 35 31 26 23 20 21 19 19 15 17 17 13 15 16 16 15 14
57 57 56 56 55 54 54 52 51 48 46 46 46 45 45 44 43 44 44 44 44 44 44 45 46 45 32 -3 17 25 31 28 26 23 22 22 20 20 19 19 17 16 18 18 17 16 14
58 57 56 56 55 55 54 52 51 48 46 46 45 45 44 44 43 43 44 43 43 44 45 45 46 43 32 12 25 32 34 27 28 25 22 23 23 22 20 18 18 19 16 14 9 9 9
58 57 56 56 55 55 53 52 50 48 47 46 45 44 44 43 44 44 43 43 44 45 46 46 47 42 19 29 33 36 34 27 27 25 22 23 24 22 20 20 20 17 16 9 6 6 6
56 58 56 56 55 54 53 52 50 48 47 46 44 44 43 44 43 43 43 44 46 47 47 47 41 37 14 29 26 28 33 23 22 24 25 26 25 23 21 19 16 18 5 9 9 9 8
53 58 57 56 55 54 52 51 49 48 47 45 44 43 43 43 43 43 44 45 47 46 45 44 40 28 23 16 23 22 24 25 21 23 25 27 24 21 20 18 6 6 9 11 11 12 13
52 55 57 56 55 53 52 51 50 48 47 44 43 43 42 42 42 42 43 29 26 28 40 21 21 21 20 23 24 21 23 23 24 25 23 25 22 19 18 19 17 16 15 15 16 17 17
51 53 56 56 54 53 51 50 49 47 45 43 42 42 42 41 41 43 42 25 20 23 5 25 27 26 28 27 19 19 24 23 25 22 25 22 21 21 21 21 20 19 19 18 19 20 20
54 52 57 56 54 52 51 50 47 45 43 41 42 42 41 41 42 39 33 31 32 31 13 20 27 25 24 26 20 17 25 25 25 24 23 22 21 22 22 21 21 21 21 19 19 21 22
54 53 55 55 53 51 50 48 45 43 42 43 42 41 41 41 38 36 32 35 34 33 18 22 24 21 24 24 16 20 26 27 24 22 23 23 24 21 20 20 20 19 20 21 21 23 23
54 55 55 53 51 50 48 46 43 43 44 43 41 41 42 42 36 32 34 37 36 34 -13 22 18 16 17 16 16 16 25 26 26 25 24 22 24 24 24 24 24 22 24 28 27 28 24
54 55 52 51 50 47 46 45 44 44 43 41 41 41 42 42 38 38 38 38 36 15 -6 8 8 13 15 17 18 20 26 29 28 26 26 25 26 25 25 25 25 25 29 29 29 25 18
55 52 51 49 47 46 46 45 44 42 40 41 41 41 40 39 35 39 39 35 16 1 7 5 8 15 16 16 16 22 25 22 21 19 17 24 25 27 25 26 28 29 24 16 10 13 10
51 49 48 47 46 46 46 44 43 41 41 41 42 42 40 38 38 39 36 28 0 13 7 11 13 16 13 17 17 19 24 19 23 23 21 17 9 24 29 27 24 27 29 19 10 9 13
44 47 47 47 46 45 43 41 40 40 40 41 42 39 34 33 39 38 31 19 12 7 10 13 16 14 14 16 19 18 21 22 23 22 17 20 16 20 22 25 28 30 27 26 19 20 19
43 42 43 43 43 42 41 40 39 41 42 42 36 35 35 40 39 36 28 14 9 13 14 15 11 16 14 15 17 16 19 24 21 22 22 20 17 21 26 33 33 32 32 24 21 16 17
41 42 41 41 41 41 41 40 40 40 41 40 37 32 38 40 39 32 19 19 12 14 15 15 14 14 16 19 19 17 20 23 24 22 23 21 25 20 25 29 29 30 30 30 31 27 22
42 44 43 42 41 40 40 40 41 40 42 38 36 31 37 40 32 29 22 21 15 15 17 17 16 19 20 19 16 16 20 20 25 23 19 22 25 22 18 23 31 32 32 31 25 24 27
41 43 41 39 38 40 39 40 41 42 41 37 32 33 36 36 24 26 28 20 17 15 15 15 18 21 19 16 14 18 19 21 24 22 20 25 24 20 13 18 24 27 28 32 32 32 27
40 41 41 39 37 38 39 41 42 43 42 37 30 24 30 31 32 24 19 17 18 19 17 18 20 16 15 14 17 14 14 21 23 23 26 29 26 22 17 18 29 26 30 32 30 27 27
41 41 40 39 40 39 41 42 43 43 42 35 30 25 25 23 26 20 19 18 17 16 15 18 16 15 14 13 15 17 20 22 22 25 24 24 22 24 24 25 30 27 27 27 27 29 28
41 40 40 40 40 39 40 41 42 43 41 31 30 25 28 24 23 17 17 16 14 13 13 15 15 17 17 15 16 17 19 22 21 23 22 25 22 25 23 29 31 26 26 25 24 27 30
40 40 40 39 38 38 39 40 42 42 40 33 34 32 25 25 19 18 16 15 14 17 19 20 19 20 20 21 23 23 24 25 24 23 23 24 24 24 20 24 30 22 25 27 26 27 28
39 39 39 39 38 37 38 40 42 42 41 37 37 29 25 22 20 20 21 20 19 19 20 27 26 24 25 29 30 29 29 28 28 27 26 24 25 25 23 26 16 27 27 30 28 28 29
40 39 39 39 38 36 38 40 42 42 42 38 38 32 27 24 26 25 24 25 25 25 26 25 26 27 30 29 24 21 22 22 25 28 29 26 26 25 22 22 24 24 25 25 25 26 30
40 39 39 39 38 37 39 40 41 42 41 38 38 37 30 26 25 29 26 24 22 23 23 26 29 31 27 26 23 20 18 21 21 23 28 28 27 26 22 20 15 24 26 29 31 21 29
39 39 40 39 38 38 39 40 42 42 40 38 37 36 30 28 29 29 25 24 28 26 23 27 28 25 27 24 23 21 20 23 21 21 24 23 23 21 20 21 23 26 27 29 20 20 29
40 40 40 40 38 38 39 41 43 42 41 39 38 38 29 27 28 32 34 30 30 27 19 26 23 23 25 22 21 22 21 24 22 27 26 22 21 18 19 17 13 28 26 22 26 30 30
40 40 41 40 39 38 39 41 42 41 40 39 35 39 36 27 28 35 35 34 32 30 29 30 24 26 29 23 23 25 24 25 23 20 27 23 24 21 24 23 29 29 28 31 30 30 29

GFSGBSN_sfc_30mbdewp_129.txt.gz
Dewpoint
59 59 58 57 57 56 54 54 53 52 50 48 46 46 46 45 44 44 44 45 45 45 44 45 46 46 34 -0 9 23 36 31 26 23 22 21 19 19 13 17 17 14 14 17 17 17 15
55 59 58 57 57 56 55 54 54 52 49 48 47 47 46 45 44 44 44 44 44 44 44 46 47 45 23 -10 17 26 34 27 25 23 23 23 22 21 18 18 16 17 17 16 16 15 14
53 55 58 57 57 57 55 54 54 52 49 48 47 46 45 44 44 44 44 44 44 44 46 46 47 42 23 8 24 33 35 28 28 24 22 24 23 24 22 20 20 19 15 15 11 11 10
50 52 54 58 57 56 55 55 54 52 49 48 47 46 45 44 44 44 43 43 44 46 46 46 47 39 13 27 32 33 34 26 26 25 23 24 24 24 22 21 20 17 16 7 6 9 8
50 51 52 54 57 56 55 55 54 52 50 48 47 46 45 44 44 43 43 44 47 48 47 47 38 34 15 27 24 27 32 22 22 24 25 26 25 24 22 20 15 15 3 9 9 10 10
50 50 51 53 56 56 55 55 54 52 50 48 47 45 44 44 43 43 44 46 47 46 45 43 39 22 19 17 23 23 24 26 22 24 26 25 24 22 21 17 1 5 8 9 10 11 13
48 51 51 52 53 57 56 55 53 51 50 48 46 45 43 43 42 42 41 42 27 29 40 19 21 19 19 23 24 21 23 24 25 26 23 26 22 17 16 19 17 17 15 13 14 16 17
47 49 51 52 52 55 56 55 53 50 50 48 46 44 43 42 41 43 41 24 18 18 6 26 26 23 26 27 16 18 25 23 25 23 25 22 20 22 23 21 20 19 18 17 18 20 22
47 49 50 51 52 53 56 55 52 50 49 47 45 44 42 41 42 42 33 29 32 29 7 20 26 23 23 24 18 16 24 26 25 24 23 22 21 23 22 21 21 20 20 20 20 22 25
47 48 49 52 53 53 55 54 51 49 48 46 44 43 42 41 38 35 32 35 34 33 10 19 21 23 25 24 16 20 26 27 25 23 24 24 24 22 21 20 20 20 21 21 21 25 21
46 47 50 54 53 52 55 52 50 48 46 45 43 41 41 41 36 32 33 36 37 32 -11 21 20 24 22 16 16 17 27 27 25 24 25 19 24 24 24 24 23 22 23 24 25 26 26
45 51 53 55 54 53 53 50 48 46 44 43 42 41 42 40 38 37 38 37 35 12 -11 11 10 14 15 18 18 22 25 28 28 26 26 25 26 25 25 25 26 25 26 28 27 27 17
47 55 55 54 53 53 50 48 45 45 44 42 41 41 41 40 36 39 39 35 12 0 10 4 12 16 16 16 17 23 23 20 19 13 14 20 22 27 26 25 28 30 26 18 13 15 7
43 55 54 53 51 49 47 45 45 44 43 42 43 43 41 39 39 39 37 28 0 11 8 10 15 16 15 18 19 19 24 19 23 23 20 13 -0 24 29 24 24 24 28 21 15 12 14
43 43 52 50 48 46 46 46 45 43 42 42 42 38 37 37 40 38 31 13 2 10 10 13 16 13 15 18 19 18 21 21 23 21 12 15 11 22 18 28 30 32 28 29 25 21 19
44 42 40 46 47 46 45 44 43 42 42 40 34 33 32 36 39 35 28 16 10 13 15 15 11 15 13 16 16 16 19 24 22 22 22 19 17 18 24 31 33 32 33 26 26 17 15
42 43 42 41 41 43 42 42 42 40 40 41 37 33 38 38 38 31 22 16 13 15 16 15 14 16 17 18 19 17 20 23 24 21 23 21 22 19 23 26 22 28 24 28 29 27 21
40 40 40 41 41 40 40 41 39 39 40 41 37 30 38 40 31 30 23 20 15 15 19 17 18 20 20 18 17 17 19 21 25 23 18 23 23 20 17 21 27 25 26 29 25 23 26
42 42 41 41 40 40 42 41 40 39 41 37 34 34 37 37 26 26 28 21 17 16 16 16 22 20 20 17 15 17 19 23 24 22 20 25 24 19 9 23 24 26 26 30 32 31 27
42 41 41 41 40 41 41 40 41 43 42 36 31 28 31 33 32 28 26 18 17 19 18 21 19 17 16 14 16 16 14 20 24 23 25 29 26 21 15 17 27 25 24 28 27 27 27
42 40 37 40 39 40 41 40 41 43 42 35 30 24 28 27 29 22 20 19 17 14 17 18 16 15 14 13 14 16 20 21 23 26 25 23 21 24 23 24 28 28 26 26 24 28 23
41 39 39 39 38 41 42 42 43 43 41 31 30 26 28 27 27 19 19 18 17 13 15 16 16 17 16 14 13 16 18 22 20 23 23 25 22 24 22 27 30 26 26 24 26 26 28
41 41 41 41 39 40 41 42 42 43 39 33 34 31 25 24 19 17 17 16 16 18 24 19 18 19 18 19 21 22 22 24 24 22 24 24 24 24 19 24 29 22 25 27 26 26 27
40 41 40 40 39 39 40 41 42 42 40 36 35 29 23 21 19 19 19 17 18 18 22 26 24 23 26 29 29 29 29 28 28 27 26 25 25 26 21 24 17 26 26 30 27 28 29
40 40 39 39 38 38 39 41 42 43 42 38 38 30 26 23 25 24 22 25 26 27 26 25 26 28 30 28 24 21 23 25 27 28 28 26 26 25 21 20 26 26 25 24 25 24 27
40 40 39 39 37 39 39 41 42 41 40 37 36 35 30 25 26 27 25 24 23 23 25 27 30 29 28 26 24 19 17 21 22 24 29 27 27 25 22 19 16 24 24 28 30 21 28
39 40 40 39 38 39 40 41 43 41 40 37 36 36 31 28 30 28 24 24 27 24 23 27 27 24 27 25 23 21 19 23 20 21 22 22 22 20 19 20 22 25 26 28 21 21 28
40 39 40 39 38 39 40 43 42 41 41 37 37 38 30 29 29 34 33 29 27 24 19 27 24 24 25 22 21 23 22 24 24 27 24 20 19 17 18 17 15 26 24 21 25 30 28
39 38 40 39 40 39 41 43 42 41 40 37 32 37 36 29 29 35 35 34 32 28 29 29 24 27 28 23 24 25 24 25 23 21 27 23 23 20 21 22 28 29 27 29 29 27 26

GFSGBSN_sfc_30mbdewp_135.txt.gz
Dewpoint
51 52 53 55 59 58 57 57 57 56 55 54 54 51 48 47 47 46 45 45 45 45 44 45 47 48 39 16 7 24 29 31 24 19 17 13 9 8 1 1 3 4 3 3 4 4 5
51 52 52 52 52 55 58 58 57 56 55 55 53 51 49 48 47 46 45 45 45 45 44 46 48 48 34 6 14 20 24 21 20 18 18 17 16 16 9 8 8 7 10 7 6 5 5
49 50 51 50 51 51 53 58 57 56 56 55 53 50 49 48 47 45 44 44 44 44 44 47 48 41 26 11 16 23 24 21 22 20 18 21 21 18 18 12 16 15 10 7 3 3 1
48 49 48 49 51 52 52 53 57 57 56 55 53 50 49 48 47 45 44 44 44 43 45 47 47 37 20 19 21 22 22 21 21 22 21 22 23 21 19 17 14 11 9 3 3 3 3
49 47 47 48 49 50 51 52 53 57 56 55 53 51 49 48 47 46 44 42 44 48 49 48 41 32 15 26 20 20 22 17 18 22 25 23 23 21 19 17 7 5 2 1 -1 3 5
48 49 50 49 49 49 50 50 52 53 56 55 53 51 50 48 47 45 43 44 48 47 44 37 29 24 19 12 17 16 20 19 19 21 23 24 21 18 15 12 4 3 2 -0 -1 0 5
45 46 48 49 48 49 48 48 49 52 54 55 53 51 50 47 45 44 40 43 37 34 31 17 16 9 13 16 19 17 19 19 21 21 16 20 13 7 12 14 12 8 5 3 4 7 12
45 46 46 47 48 46 46 47 49 50 52 55 52 51 49 47 45 44 42 36 24 27 22 22 17 20 17 15 14 15 18 18 20 14 17 17 16 17 17 15 14 12 9 7 8 13 12
46 46 47 48 47 46 45 47 48 49 51 54 52 51 48 46 45 43 41 33 30 29 15 17 16 13 17 17 9 14 17 17 15 14 15 13 12 20 17 13 12 12 10 9 10 12 14
44 44 45 47 48 47 46 47 48 49 50 53 52 50 47 45 35 35 38 39 34 36 24 18 12 13 18 15 11 15 17 18 16 15 16 16 20 17 15 14 15 12 14 16 15 16 13
43 45 46 48 48 47 47 46 46 48 50 52 52 48 44 38 35 33 33 37 38 33 22 20 6 17 15 10 15 16 21 20 15 17 17 20 18 18 21 19 19 14 19 20 20 21 20
43 44 46 47 47 47 46 46 46 48 49 52 51 47 41 41 37 34 38 40 38 27 20 13 17 16 14 12 13 20 20 22 21 17 16 14 16 18 18 20 21 22 23 22 21 21 17
41 44 45 46 46 46 46 46 47 47 49 52 49 45 41 40 38 39 40 37 22 21 20 12 14 12 11 11 11 15 15 15 13 11 10 9 13 20 23 20 23 24 21 12 11 17 10
41 44 44 45 45 47 48 49 51 51 49 50 47 42 39 40 43 43 38 29 19 22 17 11 12 12 10 12 14 14 13 13 16 13 7 1 12 16 22 22 23 25 22 16 12 6 10
40 43 43 44 44 47 51 53 53 49 51 48 44 39 39 44 44 41 31 25 25 24 13 8 12 11 12 13 16 14 15 11 15 12 9 2 7 13 12 20 26 30 26 23 23 18 15
41 43 43 43 44 49 54 51 51 50 47 43 39 37 39 44 44 38 31 28 26 19 12 12 11 12 12 12 17 25 18 16 18 15 14 13 9 8 14 22 25 25 24 21 24 18 13
41 42 42 43 43 50 53 51 49 45 43 39 36 33 41 45 43 36 28 27 24 15 11 12 11 11 12 12 11 19 14 19 18 15 16 17 18 13 14 18 16 18 25 24 21 19 16
40 41 42 43 41 46 48 46 44 43 41 40 37 29 42 42 33 32 30 27 15 10 12 12 12 9 10 11 9 10 16 18 18 14 18 22 21 15 11 17 21 22 21 21 25 19 28
40 41 40 43 41 40 43 44 43 43 43 39 32 34 41 42 28 30 27 21 14 12 13 13 14 14 13 12 11 9 16 21 20 17 20 24 21 17 16 19 20 22 24 22 23 26 23
40 40 39 40 42 41 42 41 41 43 45 42 35 28 34 37 36 27 25 21 15 17 15 15 16 16 14 12 14 13 18 21 19 19 25 26 21 21 14 22 24 20 21 22 24 26 28
40 41 41 39 39 40 42 42 43 43 45 42 37 30 32 27 33 28 28 16 15 17 18 17 15 13 12 13 14 15 17 20 20 26 22 26 19 18 17 16 22 26 23 23 26 28 23
41 40 41 42 39 40 40 42 42 43 44 39 34 31 30 29 28 27 23 17 16 14 16 13 13 12 12 12 11 12 14 15 20 24 25 25 21 19 17 19 28 25 24 21 22 25 27
39 39 38 40 40 40 41 40 42 44 43 37 32 29 27 28 28 28 21 15 16 19 20 17 15 14 14 14 15 15 16 21 22 23 24 25 22 19 17 20 29 24 26 26 24 25 24
38 40 39 39 39 39 41 42 42 44 42 39 30 32 29 26 26 21 18 19 18 18 17 15 16 15 22 25 25 23 23 23 24 24 26 25 24 22 16 24 19 26 30 28 27 26 28
40 40 40 40 40 39 41 41 41 42 43 40 35 35 25 27 21 20 19 17 19 19 16 17 23 25 26 23 19 19 20 22 24 25 26 26 23 22 17 14 25 23 22 25 26 25 24
41 40 40 40 40 40 41 43 43 42 42 39 37 39 31 21 19 18 17 19 20 20 23 28 30 30 26 23 21 14 15 16 20 24 26 26 26 22 18 13 16 24 23 27 27 24 25
41 40 40 40 40 40 41 43 42 41 41 39 37 42 35 29 24 19 20 21 22 22 21 25 27 26 28 22 22 16 16 17 19 22 23 23 23 21 17 14 23 23 24 29 22 23 25
40 39 40 40 39 40 43 42 42 42 40 39 38 41 36 33 33 30 28 25 22 21 22 24 23 25 22 22 18 19 18 20 18 21 23 20 19 19 17 15 16 25 23 24 28 27 26
40 40 40 40 40 42 43 42 41 40 38 37 33 38 36 33 34 36 35 33 31 29 27 27 24 22 21 22 25 20 21 23 18 19 24 22 23 24 23 26 27 27 27 27 27 26 26

GFSGBSN_sfc_30mbdewp_138.txt.gz
Dewpoint
51 52 52 53 53 54 59 58 58 57 56 56 55 54 53 50 48 48 47 46 45 45 44 44 46 48 44 25 11 25 29 29 25 17 15 13 10 8 6 3 3 2 2 3 4 4 2
50 51 52 52 51 51 52 54 58 57 56 56 55 54 53 50 49 48 47 46 45 45 44 43 47 48 40 20 15 19 21 18 18 16 16 15 15 15 11 8 7 5 6 9 7 4 4
48 49 50 51 50 51 52 52 53 57 57 56 55 55 53 51 49 49 47 46 45 45 43 44 47 42 32 20 12 19 20 18 19 17 16 18 19 17 16 13 13 15 12 6 6 5 2
48 48 49 48 49 50 51 52 52 53 57 56 55 55 53 51 49 48 47 46 45 43 42 46 48 39 28 19 20 19 21 19 19 18 18 19 20 19 16 15 14 9 9 8 6 3 3
47 48 49 49 49 49 50 50 50 52 53 56 56 55 53 51 50 48 46 44 42 46 49 49 42 35 18 23 18 18 19 17 17 18 22 21 19 19 18 17 14 11 7 5 4 2 3
46 46 47 50 50 50 50 51 50 50 50 53 56 55 53 51 49 47 44 42 47 46 46 40 32 24 22 17 13 17 19 18 16 19 20 24 22 19 17 15 10 10 5 4 1 -1 1
45 45 45 46 48 49 49 49 49 49 50 51 54 55 52 51 49 46 40 40 34 37 35 24 20 14 13 14 17 14 15 17 17 17 16 18 18 11 11 15 14 10 4 1 1 3 8
44 45 47 47 46 47 48 48 48 48 49 50 53 54 52 50 48 44 40 41 28 31 26 28 24 19 12 16 13 11 16 14 16 16 16 17 13 17 17 13 10 9 8 7 7 7 9
46 46 45 44 44 45 49 48 48 48 48 49 51 54 52 49 46 41 36 38 40 38 29 32 22 17 15 14 10 11 15 13 14 14 13 11 13 19 18 11 8 9 9 8 8 10 10
43 43 43 43 44 45 47 50 49 47 48 48 50 53 51 47 40 36 33 40 38 42 30 31 31 19 9 14 10 8 14 14 14 12 11 14 17 16 12 10 10 10 11 13 12 12 10
42 43 44 44 45 47 48 49 48 48 47 47 49 51 49 44 39 35 38 39 36 39 24 31 18 16 12 11 11 10 15 16 14 14 17 15 17 17 16 15 16 13 15 16 16 15 18
44 42 42 44 46 46 47 47 47 47 47 47 48 51 47 45 38 37 39 37 36 29 23 27 19 13 14 13 13 14 16 18 19 14 16 13 15 14 14 17 17 18 20 21 20 20 18
44 43 42 43 45 45 46 46 47 46 46 47 47 51 46 44 36 39 36 35 28 24 28 24 12 15 13 13 10 16 17 15 13 8 10 11 9 12 18 17 18 21 20 14 11 19 18
43 42 42 42 43 44 45 45 45 46 47 47 47 50 47 43 40 37 34 32 25 25 26 23 18 17 14 13 10 11 15 14 14 14 11 7 9 15 20 20 18 22 20 15 13 9 12
43 42 42 41 43 44 45 46 47 46 47 47 48 47 45 43 40 35 35 28 28 28 26 22 16 15 14 11 14 12 14 13 14 13 6 4 7 16 20 13 22 25 22 25 19 18 17
42 42 41 41 43 44 45 47 48 48 51 50 46 42 42 43 39 36 34 31 30 31 28 23 13 13 11 11 13 19 15 14 14 12 14 11 8 12 8 13 18 21 21 17 23 16 10
42 41 41 41 43 44 47 48 51 53 51 47 41 37 42 44 38 36 29 30 31 29 25 24 19 14 13 13 15 20 17 17 18 14 11 15 15 10 12 12 13 23 22 24 19 17 13
42 41 40 43 42 45 50 51 52 50 46 43 38 30 43 42 31 33 30 29 32 28 22 17 16 19 16 16 15 18 14 16 18 14 12 19 16 14 12 17 18 18 19 18 19 15 21
42 40 40 43 42 42 40 39 46 46 44 40 34 35 43 38 28 28 30 31 29 28 21 17 20 21 20 18 13 15 13 18 17 14 18 21 20 16 10 14 16 17 23 19 20 21 21
42 40 39 42 42 41 41 42 41 43 45 40 34 28 34 37 37 27 30 31 29 23 17 21 18 16 14 13 13 13 18 21 18 17 26 24 22 21 19 23 25 25 23 22 21 21 24
41 41 40 40 42 41 43 41 43 43 44 42 37 29 31 27 31 32 30 34 21 17 16 17 16 15 15 13 12 10 21 22 17 24 22 27 22 19 16 13 21 22 19 23 23 23 23
41 41 41 40 40 42 43 41 42 43 44 39 34 30 30 28 33 32 32 25 16 15 16 16 16 16 15 14 13 13 21 18 15 23 22 26 23 18 16 16 28 23 22 20 22 23 25
42 40 41 41 40 40 41 41 41 44 44 38 40 32 30 29 31 32 31 26 23 22 21 19 16 15 16 14 15 16 18 17 19 22 24 24 25 17 18 22 28 23 25 26 25 25 26
39 40 39 41 41 40 40 41 42 43 43 42 42 39 34 30 31 32 27 24 23 19 18 15 15 16 21 24 24 24 22 22 23 24 24 23 22 21 24 25 17 27 29 29 28 27 28
40 40 39 40 40 40 40 42 41 42 44 43 41 41 34 32 34 29 21 21 21 22 19 18 20 25 27 24 21 19 21 21 22 23 25 26 22 21 18 18 24 23 25 25 24 25 25
40 40 40 40 40 39 40 41 42 42 41 41 42 43 39 32 31 27 26 26 27 22 23 29 28 29 25 21 19 11 13 13 18 20 23 23 25 22 18 15 16 24 23 25 26 23 25
41 41 40 41 41 41 42 42 42 42 42 40 41 45 43 32 29 28 26 28 25 25 27 29 29 27 27 23 22 17 15 15 18 23 22 25 23 22 19 16 23 23 25 27 20 23 25
42 41 41 41 40 41 42 42 42 41 42 39 39 46 40 36 35 30 28 26 25 25 26 27 24 24 28 24 21 20 20 18 22 22 22 22 20 20 19 16 20 24 27 24 29 27 26
41 40 41 41 40 41 42 42 40 41 40 39 35 41 41 37 35 36 35 35 33 30 27 27 24 23 24 25 23 23 22 22 23 24 22 24 24 26 25 26 27 29 29 28 27 26 25

GFSGBSN_sfc_30mbdewp_141.txt.gz
Dewpoint
51 52 52 52 53 52 54 57 59 58 58 57 56 55 55 54 52 50 49 48 47 46 45 44 44 48 45 36 27 28 33 28 28 24 19 15 13 13 11 10 4 2 4 6 9 9 6
50 51 52 52 52 51 51 52 53 58 58 57 56 55 55 54 53 50 49 48 47 46 45 44 44 48 43 27 22 22 27 22 19 18 16 17 17 17 14 12 14 10 12 12 13 11 8
48 49 50 52 50 50 51 52 52 52 56 57 56 56 55 54 53 52 51 48 47 46 45 43 45 45 36 24 14 21 20 20 19 18 16 19 19 18 18 15 17 14 13 14 11 8 7
48 49 49 50 49 49 50 50 51 52 53 55 56 56 55 54 53 52 50 47 46 45 43 43 47 44 27 27 24 19 21 21 20 18 18 19 21 20 19 18 19 12 10 7 9 6 4
46 48 48 50 51 49 49 49 50 50 50 52 54 56 55 54 53 51 49 46 44 44 49 50 47 40 24 23 18 18 18 19 20 18 20 22 20 19 20 18 17 15 10 9 8 4 4
45 46 46 47 49 50 51 51 50 50 50 49 51 54 55 54 52 50 46 43 41 44 43 43 40 29 29 20 17 18 19 20 16 17 20 21 22 21 20 17 11 11 8 4 1 1 5
45 45 45 45 47 47 48 50 50 49 49 50 51 53 55 53 51 47 41 38 38 41 39 30 27 19 15 24 16 16 18 17 16 16 16 21 22 19 17 16 15 10 7 5 6 6 10
43 44 46 47 48 47 47 47 49 49 48 49 50 51 54 52 50 45 40 41 34 36 33 30 31 30 26 16 15 15 14 16 16 15 17 17 18 19 17 15 11 11 10 10 11 11 10
45 46 44 43 43 43 44 45 49 49 48 48 49 50 54 51 46 40 37 41 38 39 32 34 31 28 26 17 14 14 13 15 14 15 18 16 17 20 19 17 12 8 9 11 11 13 12
44 44 43 41 42 44 45 45 47 50 49 48 48 49 52 47 43 37 33 41 37 42 34 33 34 28 22 16 13 14 14 14 12 12 13 13 15 16 15 13 11 9 12 14 13 13 11
44 44 44 43 42 44 46 46 47 49 49 49 48 48 48 47 39 36 37 40 35 41 23 28 32 30 23 14 14 12 15 14 12 15 15 17 17 17 16 15 14 15 17 17 18 16 16
45 45 44 43 43 44 45 46 47 47 48 48 48 48 48 46 39 38 39 39 38 30 23 27 24 18 14 13 14 11 14 16 17 15 13 17 19 18 18 17 18 17 18 19 20 20 19
45 45 44 43 43 42 43 44 45 46 47 47 48 48 48 46 42 39 38 34 28 24 26 24 19 17 13 13 13 12 14 14 16 16 14 15 16 14 13 17 19 18 19 18 16 19 18
45 45 44 43 43 42 42 43 45 45 46 47 47 47 48 46 41 38 35 33 23 24 24 25 17 17 13 15 13 14 13 15 16 15 11 11 10 12 19 19 18 20 21 18 15 16 17
44 44 43 43 42 42 42 44 45 45 45 46 46 46 46 47 40 35 35 27 21 24 27 24 17 15 14 15 14 13 17 17 17 14 14 11 11 13 19 18 18 23 23 25 20 19 18
44 44 43 42 41 42 43 45 46 46 45 45 45 44 43 47 40 37 34 27 25 29 26 27 23 18 17 15 14 13 17 16 17 16 17 17 14 19 15 11 13 19 21 17 23 19 14
44 44 42 41 41 42 43 43 48 48 49 46 44 40 44 46 40 37 29 29 26 30 32 29 27 20 17 16 15 20 18 19 17 12 13 15 14 13 13 13 12 17 21 24 22 18 15
45 43 42 41 42 43 42 41 43 50 52 48 43 34 44 42 32 33 31 28 30 29 31 30 32 29 23 16 14 19 18 18 18 14 10 20 20 12 10 13 16 21 25 21 18 18 21
44 43 41 40 42 42 41 42 43 44 45 40 38 36 43 39 29 30 32 31 30 28 30 30 26 24 25 21 17 19 19 22 18 13 19 22 20 13 15 14 17 17 21 20 22 22 19
44 42 41 40 42 41 42 42 43 44 44 39 33 29 35 37 36 29 30 30 29 32 29 27 26 22 22 22 24 20 19 21 18 25 27 25 22 21 15 21 23 23 22 22 21 20 22
43 42 41 40 41 43 43 42 43 44 45 41 35 31 32 27 30 31 29 31 29 26 25 28 24 21 22 24 26 23 23 18 18 23 24 28 25 21 19 22 22 22 23 23 22 23 22
43 42 41 41 40 41 43 42 43 43 44 39 33 32 31 30 34 33 31 31 28 29 20 21 22 23 24 25 27 20 24 20 17 22 23 26 24 22 18 18 24 21 20 23 23 24 26
43 42 41 41 41 40 43 42 42 43 44 38 39 38 30 29 32 33 30 30 31 26 22 21 21 22 22 21 17 23 23 20 19 22 23 25 25 18 17 24 24 20 23 25 25 27 26
43 42 41 41 41 40 40 41 42 42 43 42 41 40 33 28 31 33 31 31 29 23 21 22 19 22 25 24 23 23 21 19 24 23 27 26 25 24 26 25 18 25 31 28 25 27 27
42 41 40 40 41 41 40 41 43 42 43 42 42 40 37 28 32 33 30 28 28 25 23 23 23 26 27 25 23 22 22 23 24 24 26 27 25 21 26 25 24 26 27 26 24 25 26
41 40 40 40 41 41 41 42 42 42 43 42 43 43 39 34 33 35 32 33 31 25 28 27 29 30 25 23 20 18 20 21 21 22 26 25 26 24 22 18 20 23 26 27 26 22 25
42 41 41 41 41 41 41 42 42 42 43 42 40 44 41 34 36 36 33 33 27 31 30 29 28 25 28 21 16 16 15 19 20 21 22 23 23 22 22 21 23 24 26 27 19 21 27
42 42 41 41 41 41 41 42 41 42 43 42 39 44 42 36 35 33 33 30 30 31 29 29 26 27 28 22 22 22 20 17 22 25 24 25 22 21 21 21 20 27 27 23 26 28 27
42 42 41 41 41 41 41 41 42 42 43 42 38 47 48 38 37 37 36 36 36 31 31 31 25 26 29 27 25 26 23 25 26 22 26 22 25 25 27 25 29 30 30 29 27 26 25